| time (UTC) | temp F | wind direction | speed MPH | gust MPH | rain 1hr in | rain 24hr in | rain mn in | humidity % | barometer mb |
| 20260904170848 | 91 | 265 | 2.0 | 2.0 | 0.00 | 0.00 | 0.00 | 60 | 1015.1 |
| 20260904170343 | 91 | 246 | 1.0 | 2.0 | 0.00 | 0.00 | 0.00 | 61 | 1015.4 |
| 20260904165839 | 90 | 259 | 3.0 | 3.0 | 0.00 | 0.00 | 0.00 | 61 | 1015.5 |
| 20260904165337 | 89 | 270 | 2.0 | 5.0 | 0.00 | 0.00 | 0.00 | 62 | 1015.4 |
| 20260904164833 | 90 | 203 | 2.0 | 3.0 | 0.00 | 0.00 | 0.00 | 63 | 1015.1 |
| 20260904164332 | 90 | 252 | 3.0 | 3.0 | 0.00 | 0.00 | 0.00 | 62 | 1015.5 |
| 20260904163829 | 89 | 172 | 0.0 | 2.0 | 0.00 | 0.00 | 0.00 | 62 | 1015.5 |
| 20260904163329 | 89 | 72 | 2.0 | 2.0 | 0.00 | 0.00 | 0.00 | 62 | 1015.5 |
| 20260904162828 | 90 | 250 | 2.0 | 2.0 | 0.00 | 0.00 | 0.00 | 62 | 1015.5 |
| 20260904162324 | 90 | 180 | 0.0 | 2.0 | 0.00 | 0.00 | 0.00 | 63 | 1015.7 |
| 20260904161819 | 90 | 270 | 2.0 | 2.0 | 0.00 | 0.00 | 0.00 | 63 | 1015.6 |
| 20260904161319 | 90 | 257 | 1.0 | 4.0 | 0.00 | 0.00 | 0.00 | 63 | 1015.3 |
| 20260904160814 | 89 | 187 | 3.0 | 3.0 | 0.00 | 0.00 | 0.00 | 66 | 1015.6 |
| 20260904160309 | 89 | 105 | 1.0 | 2.0 | 0.00 | 0.00 | 0.00 | 65 | 1015.5 |
| 20260904155809 | 88 | 270 | 2.0 | 3.0 | 0.00 | 0.00 | 0.00 | 66 | 1015.5 |
| 20260904155306 | 88 | 307 | 0.0 | 3.0 | 0.00 | 0.00 | 0.00 | 66 | 1015.5 |
| 20260904154802 | 87 | 260 | 2.0 | 3.0 | 0.00 | 0.00 | 0.00 | 68 | 1015.4 |
| 20260904154257 | 87 | 256 | 3.0 | 4.0 | 0.00 | 0.00 | 0.00 | 69 | 1015.4 |
| 20260904153753 | 86 | 151 | 0.0 | 3.0 | 0.00 | 0.00 | 0.00 | 71 | 1015.4 |
| 20260904153249 | 86 | 279 | 1.0 | 2.0 | 0.00 | 0.00 | 0.00 | 73 | 1015.3 |
| 20260904152745 | 86 | 96 | 0.0 | 3.0 | 0.00 | 0.00 | 0.00 | 71 | 1015.3 |
| 20260904152240 | 87 | 286 | 1.0 | 2.0 | 0.00 | 0.00 | 0.00 | 72 | 1015.3 |
| 20260904151734 | 87 | 191 | 2.0 | 2.0 | 0.00 | 0.00 | 0.00 | 73 | 1015.4 |
| 20260904151233 | 86 | 221 | 0.0 | 2.0 | 0.00 | 0.00 | 0.00 | 75 | 1015.2 |
| 20260904150730 | 86 | 246 | 3.0 | 4.0 | 0.00 | 0.00 | 0.00 | 76 | 1015.3 |
| 20260904150224 | 85 | 270 | 0.0 | 3.0 | 0.00 | 0.00 | 0.00 | 77 | 1015.4 |
| 20260904145723 | 84 | 216 | 2.0 | 2.0 | 0.00 | 0.00 | 0.00 | 80 | 1015.5 |
| 20260904145218 | 84 | 286 | 0.0 | 3.0 | 0.00 | 0.00 | 0.00 | 80 | 1015.5 |
| 20260904144713 | 85 | 195 | 1.0 | 2.0 | 0.00 | 0.00 | 0.00 | 80 | 1015.4 |
| 20260904144209 | 84 | 180 | 0.0 | 4.0 | 0.00 | 0.00 | 0.00 | 80 | 1015.2 |
| 20260904143705 | 84 | 73 | 2.0 | 2.0 | 0.00 | 0.00 | 0.00 | 82 | 1015.4 |
| 20260904143201 | 83 | 68 | 3.0 | 3.0 | 0.00 | 0.00 | 0.00 | 83 | 1015.4 |
| 20260904142658 | 82 | 180 | 0.0 | 2.0 | 0.00 | 0.00 | 0.00 | 85 | 1015.4 |
| 20260904142153 | 81 | 251 | 2.0 | 2.0 | 0.00 | 0.00 | 0.00 | 85 | 1015.4 |
| 20260904141653 | 81 | 90 | 0.0 | 2.0 | 0.00 | 0.00 | 0.00 | 85 | 1015.3 |
| 20260904141149 | 81 | 8 | 0.0 | 1.0 | 0.00 | 0.00 | 0.00 | 85 | 1015.4 |
| 20260904140644 | 81 | 180 | 1.0 | 2.0 | 0.00 | 0.00 | 0.00 | 85 | 1015.5 |
| 20260904140139 | 81 | 188 | 0.0 | 3.0 | 0.00 | 0.00 | 0.00 | 85 | 1015.5 |
| 20260904135638 | 80 | 85 | 0.0 | 2.0 | 0.00 | 0.00 | 0.00 | 86 | 1015.3 |
| 20260904135134 | 80 | 99 | 0.0 | 3.0 | 0.00 | 0.00 | 0.00 | 86 | 1015.3 |
| 20260904134630 | 80 | 195 | 1.0 | 2.0 | 0.00 | 0.00 | 0.00 | 87 | 1015.4 |
| 20260904134128 | 80 | 180 | 1.0 | 2.0 | 0.00 | 0.00 | 0.00 | 87 | 1014.9 |
| 20260904133624 | 80 | 180 | 0.0 | 2.0 | 0.00 | 0.00 | 0.00 | 87 | 1015.0 |
| 20260904133120 | 80 | 66 | 0.0 | 2.0 | 0.00 | 0.00 | 0.00 | 87 | 1015.1 |
| 20260904132620 | 79 | 251 | 0.0 | 2.0 | 0.00 | 0.00 | 0.00 | 87 | 1015.3 |
| 20260904132115 | 79 | 188 | 0.0 | 2.0 | 0.00 | 0.00 | 0.00 | 87 | 1015.2 |
| 20260904131614 | 79 | 186 | 0.0 | 3.0 | 0.00 | 0.00 | 0.00 | 87 | 1015.1 |
| 20260904131110 | 79 | 194 | 1.0 | 3.0 | 0.00 | 0.00 | 0.00 | 87 | 1015.0 |
| 20260904130609 | 79 | 194 | 0.0 | 3.0 | 0.00 | 0.00 | 0.00 | 87 | 1014.6 |
| 20260904130104 | 79 | 183 | 3.0 | 3.0 | 0.00 | 0.00 | 0.00 | 87 | 1014.9 |
| 20260904125601 | 79 | 209 | 0.0 | 3.0 | 0.00 | 0.00 | 0.00 | 87 | 1014.6 |
| 20260904125100 | 79 | 185 | 0.0 | 2.0 | 0.00 | 0.00 | 0.00 | 87 | 1014.5 |
| 20260904124556 | 79 | 212 | 0.0 | 2.0 | 0.00 | 0.00 | 0.00 | 88 | 1014.4 |
| 20260904124052 | 79 | 180 | 0.0 | 1.0 | 0.00 | 0.00 | 0.00 | 88 | 1014.5 |
| 20260904123546 | 79 | 195 | 0.0 | 2.0 | 0.00 | 0.00 | 0.00 | 88 | 1014.5 |
| 20260904123042 | 79 | 185 | 0.0 | 2.0 | 0.00 | 0.00 | 0.00 | 88 | 1014.6 |
| 20260904122542 | 79 | 261 | 1.0 | 2.0 | 0.00 | 0.00 | 0.00 | 89 | 1014.4 |
| 20260904122037 | 78 | 180 | 0.0 | 2.0 | 0.00 | 0.00 | 0.00 | 88 | 1014.4 |
| 20260904121532 | 79 | 180 | 0.0 | 2.0 | 0.00 | 0.00 | 0.00 | 88 | 1014.5 |
| 20260904121028 | 79 | 187 | 0.0 | 2.0 | 0.00 | 0.00 | 0.00 | 88 | 1014.3 |
| 20260904120524 | 79 | 188 | 0.0 | 2.0 | 0.00 | 0.00 | 0.00 | 88 | 1014.4 |
| 20260904120019 | 79 | 192 | 0.0 | 3.0 | 0.00 | 0.00 | 0.00 | 89 | 1014.3 |
| 20260904115515 | 79 | 198 | 1.0 | 2.0 | 0.00 | 0.00 | 0.00 | 89 | 1014.2 |
| 20260904115015 | 79 | 0 | 0.0 | 2.0 | 0.00 | 0.00 | 0.00 | 89 | 1014.3 |
| 20260904114510 | 79 | 180 | 0.0 | 2.0 | 0.00 | 0.00 | 0.00 | 89 | 1014.2 |
| 20260904114005 | 79 | 8 | 0.0 | 1.0 | 0.00 | 0.00 | 0.00 | 89 | 1014.1 |
| 20260904113504 | 79 | 249 | 0.0 | 2.0 | 0.00 | 0.00 | 0.00 | 89 | 1014.1 |
| 20260904113004 | 79 | 194 | 0.0 | 0.0 | 0.00 | 0.00 | 0.00 | 88 | 1014.2 |
| 20260904112459 | 79 | 180 | 0.0 | 0.0 | 0.00 | 0.00 | 0.00 | 87 | 1014.3 |
| 20260904111955 | 79 | 99 | 0.0 | 1.0 | 0.00 | 0.00 | 0.00 | 87 | 1014.3 |
| 20260904111450 | 79 | 180 | 0.0 | 2.0 | 0.00 | 0.00 | 0.00 | 87 | 1014.2 |
| 20260904110946 | 79 | 194 | 0.0 | 3.0 | 0.00 | 0.00 | 0.00 | 87 | 1014.2 |
| 20260904110445 | 79 | 203 | 0.0 | 2.0 | 0.00 | 0.00 | 0.00 | 87 | 1014.2 |
| 20260904105940 | 79 | 215 | 1.0 | 2.0 | 0.00 | 0.00 | 0.00 | 87 | 1014.2 |
| 20260904105435 | 79 | 203 | 1.0 | 2.0 | 0.00 | 0.00 | 0.00 | 87 | 1014.2 |
| 20260904104931 | 79 | 180 | 0.0 | 2.0 | 0.00 | 0.00 | 0.00 | 87 | 1014.0 |
| 20260904104430 | 79 | 8 | 0.0 | 0.0 | 0.00 | 0.00 | 0.00 | 87 | 1013.8 |
| 20260904103927 | 79 | 195 | 0.0 | 2.0 | 0.00 | 0.00 | 0.00 | 87 | 1013.8 |
| 20260904103422 | 79 | 172 | 0.0 | 2.0 | 0.00 | 0.00 | 0.00 | 87 | 1013.6 |
| 20260904102918 | 79 | 187 | 0.0 | 2.0 | 0.00 | 0.00 | 0.00 | 87 | 1013.9 |
| 20260904102414 | 79 | 198 | 0.0 | 0.0 | 0.00 | 0.00 | 0.00 | 87 | 1013.8 |
| 20260904101909 | 79 | 198 | 0.0 | 1.0 | 0.00 | 0.00 | 0.00 | 87 | 1013.7 |
| 20260904101406 | 79 | 200 | 0.0 | 1.0 | 0.00 | 0.00 | 0.00 | 87 | 1013.8 |
| 20260904100901 | 79 | 200 | 1.0 | 2.0 | 0.00 | 0.00 | 0.00 | 87 | 1013.8 |
| 20260904100357 | 79 | 195 | 0.0 | 2.0 | 0.00 | 0.00 | 0.00 | 87 | 1013.8 |
| 20260904095851 | 79 | 240 | 0.0 | 1.0 | 0.00 | 0.00 | 0.00 | 86 | 1013.9 |
| 20260904095345 | 79 | 82 | 0.0 | 3.0 | 0.00 | 0.00 | 0.00 | 86 | 1013.6 |
| 20260904094841 | 79 | 172 | 0.0 | 2.0 | 0.00 | 0.00 | 0.00 | 86 | 1013.8 |
| 20260904094336 | 79 | 160 | 0.0 | 2.0 | 0.00 | 0.00 | 0.00 | 86 | 1013.6 |
| 20260904093832 | 79 | 348 | 0.0 | 2.0 | 0.00 | 0.00 | 0.00 | 86 | 1013.9 |
| 20260904093332 | 79 | 0 | 0.0 | 0.0 | 0.00 | 0.00 | 0.00 | 86 | 1013.7 |
| 20260904092828 | 79 | 180 | 0.0 | 2.0 | 0.00 | 0.00 | 0.00 | 86 | 1013.9 |
| 20260904092324 | 79 | 187 | 0.0 | 2.0 | 0.00 | 0.00 | 0.00 | 86 | 1013.8 |
| 20260904091820 | 79 | 7 | 0.0 | 1.0 | 0.00 | 0.00 | 0.00 | 86 | 1013.6 |
| 20260904091320 | 79 | 180 | 0.0 | 1.0 | 0.00 | 0.00 | 0.00 | 86 | 1013.7 |
| 20260904090815 | 79 | 355 | 0.0 | 2.0 | 0.00 | 0.00 | 0.00 | 86 | 1013.8 |
| 20260904090312 | 79 | 195 | 0.0 | 1.0 | 0.00 | 0.00 | 0.00 | 85 | 1013.8 |
| 20260904085806 | 79 | 187 | 0.0 | 1.0 | 0.00 | 0.00 | 0.00 | 86 | 1013.5 |
| 20260904085305 | 79 | 194 | 0.0 | 1.0 | 0.00 | 0.00 | 0.00 | 85 | 1013.8 |
| 20260904084756 | 80 | 250 | 0.0 | 2.0 | 0.00 | 0.00 | 0.00 | 85 | 1013.6 |
| 20260904084251 | 79 | 188 | 0.0 | 3.0 | 0.00 | 0.00 | 0.00 | 85 | 1013.9 |
| 20260904083748 | 80 | 195 | 2.0 | 2.0 | 0.00 | 0.00 | 0.00 | 85 | 1013.8 |
| 20260904083245 | 80 | 188 | 0.0 | 2.0 | 0.00 | 0.00 | 0.00 | 85 | 1013.7 |
| 20260904082745 | 80 | 169 | 0.0 | 0.0 | 0.00 | 0.00 | 0.00 | 85 | 1013.3 |
| 20260904082239 | 80 | 200 | 0.0 | 2.0 | 0.00 | 0.00 | 0.00 | 85 | 1013.7 |
| 20260904081735 | 80 | 186 | 1.0 | 2.0 | 0.00 | 0.00 | 0.00 | 85 | 1013.5 |
| 20260904081230 | 80 | 270 | 0.0 | 1.0 | 0.00 | 0.00 | 0.00 | 84 | 1013.6 |
| 20260904080726 | 80 | 192 | 0.0 | 1.0 | 0.00 | 0.00 | 0.00 | 84 | 1013.6 |
| 20260904080222 | 80 | 90 | 0.0 | 3.0 | 0.00 | 0.00 | 0.00 | 84 | 1013.5 |
| 20260904075719 | 80 | 215 | 0.0 | 1.0 | 0.00 | 0.00 | 0.00 | 84 | 1013.6 |
| 20260904075219 | 80 | 187 | 0.0 | 1.0 | 0.00 | 0.00 | 0.00 | 84 | 1013.7 |
| 20260904074718 | 80 | 240 | 2.0 | 2.0 | 0.00 | 0.00 | 0.00 | 83 | 1013.6 |
| 20260904074212 | 80 | 180 | 2.0 | 3.0 | 0.00 | 0.00 | 0.00 | 83 | 1013.6 |
| 20260904073708 | 80 | 270 | 0.0 | 3.0 | 0.00 | 0.00 | 0.00 | 83 | 1013.8 |
| 20260904073204 | 80 | 186 | 1.0 | 2.0 | 0.00 | 0.00 | 0.00 | 83 | 1013.8 |
| 20260904072700 | 80 | 180 | 0.0 | 3.0 | 0.00 | 0.00 | 0.00 | 83 | 1013.9 |
| 20260904072200 | 80 | 99 | 0.0 | 1.0 | 0.00 | 0.00 | 0.00 | 82 | 1013.6 |
| 20260904071656 | 80 | 14 | 0.0 | 3.0 | 0.00 | 0.00 | 0.00 | 82 | 1013.8 |
| 20260904071151 | 80 | 114 | 0.0 | 2.0 | 0.00 | 0.00 | 0.00 | 81 | 1013.9 |
| 20260904070650 | 80 | 90 | 0.0 | 2.0 | 0.00 | 0.00 | 0.00 | 81 | 1013.8 |
| 20260904070149 | 80 | 187 | 0.0 | 1.0 | 0.00 | 0.00 | 0.00 | 81 | 1013.8 |
| 20260904065644 | 80 | 180 | 0.0 | 1.0 | 0.00 | 0.00 | 0.00 | 81 | 1013.8 |
| 20260904065142 | 80 | 180 | 0.0 | 2.0 | 0.00 | 0.00 | 0.00 | 81 | 1013.9 |
| 20260904064636 | 80 | 251 | 0.0 | 2.0 | 0.00 | 0.00 | 0.00 | 81 | 1013.8 |
| 20260904064136 | 80 | 16 | 0.0 | 2.0 | 0.00 | 0.00 | 0.00 | 80 | 1014.1 |
| 20260904063632 | 80 | 200 | 0.0 | 2.0 | 0.00 | 0.00 | 0.00 | 80 | 1013.9 |
| 20260904063128 | 80 | 192 | 0.0 | 2.0 | 0.00 | 0.00 | 0.00 | 80 | 1014.0 |
| 20260904062624 | 80 | 11 | 0.0 | 2.0 | 0.00 | 0.00 | 0.00 | 80 | 1014.1 |
| 20260904062119 | 80 | 191 | 2.0 | 3.0 | 0.00 | 0.00 | 0.00 | 80 | 1014.2 |
| 20260904061615 | 80 | 270 | 0.0 | 2.0 | 0.00 | 0.00 | 0.00 | 80 | 1014.0 |
| 20260904061111 | 81 | 225 | 0.0 | 3.0 | 0.00 | 0.00 | 0.00 | 79 | 1013.8 |
| 20260904060607 | 81 | 190 | 2.0 | 3.0 | 0.00 | 0.00 | 0.00 | 79 | 1014.3 |
| 20260904060104 | 81 | 185 | 2.0 | 2.0 | 0.00 | 0.00 | 0.00 | 77 | 1013.9 |
| 20260904055603 | 81 | 262 | 0.0 | 2.0 | 0.00 | 0.00 | 0.00 | 77 | 1014.1 |
| 20260904055059 | 81 | 175 | 2.0 | 2.0 | 0.00 | 0.00 | 0.00 | 76 | 1014.1 |
| 20260904054554 | 81 | 194 | 3.0 | 4.0 | 0.00 | 0.00 | 0.00 | 76 | 1014.1 |
| 20260904054050 | 81 | 276 | 2.0 | 3.0 | 0.00 | 0.00 | 0.00 | 75 | 1014.2 |
| 20260904053550 | 81 | 297 | 1.0 | 2.0 | 0.00 | 0.00 | 0.00 | 75 | 1014.1 |
| 20260904053045 | 81 | 165 | 0.0 | 2.0 | 0.00 | 0.00 | 0.00 | 74 | 1014.0 |
| 20260904052542 | 81 | 199 | 2.0 | 3.0 | 0.00 | 0.00 | 0.00 | 74 | 1013.9 |
| 20260904052037 | 81 | 194 | 0.0 | 2.0 | 0.00 | 0.00 | 0.00 | 73 | 1013.9 |
| 20260904051534 | 81 | 175 | 0.0 | 2.0 | 0.00 | 0.00 | 0.00 | 73 | 1013.7 |
| 20260904051033 | 81 | 239 | 0.0 | 2.0 | 0.00 | 0.00 | 0.00 | 73 | 1013.9 |
| 20260904050529 | 82 | 196 | 0.0 | 3.0 | 0.00 | 0.00 | 0.00 | 72 | 1013.7 |
| 20260904050025 | 82 | 188 | 0.0 | 1.0 | 0.00 | 0.00 | 0.00 | 71 | 1014.0 |
| 20260904045520 | 82 | 186 | 0.0 | 1.0 | 0.00 | 0.00 | 0.00 | 71 | 1013.8 |
| 20260904045014 | 82 | 257 | 0.0 | 2.0 | 0.00 | 0.00 | 0.00 | 71 | 1013.9 |
| 20260904044510 | 82 | 168 | 0.0 | 2.0 | 0.00 | 0.00 | 0.00 | 71 | 1013.7 |
| 20260904044007 | 82 | 143 | 2.0 | 3.0 | 0.00 | 0.00 | 0.00 | 70 | 1013.9 |
| 20260904043503 | 82 | 195 | 0.0 | 2.0 | 0.00 | 0.00 | 0.00 | 70 | 1013.7 |
| 20260904042958 | 82 | 250 | 3.0 | 3.0 | 0.00 | 0.00 | 0.00 | 70 | 1013.6 |
| 20260904042455 | 82 | 143 | 2.0 | 3.0 | 0.00 | 0.00 | 0.00 | 70 | 1013.7 |
| 20260904041949 | 82 | 184 | 0.0 | 2.0 | 0.00 | 0.00 | 0.00 | 69 | 1013.9 |
| 20260904041446 | 82 | 172 | 1.0 | 2.0 | 0.00 | 0.00 | 0.00 | 69 | 1013.8 |
| 20260904040941 | 82 | 189 | 0.0 | 3.0 | 0.00 | 0.00 | 0.00 | 69 | 1014.0 |
| 20260904040441 | 82 | 220 | 0.0 | 2.0 | 0.00 | 0.00 | 0.00 | 69 | 1013.6 |
| 20260904035937 | 83 | 180 | 0.0 | 3.0 | 0.00 | 0.00 | 0.00 | 69 | 1013.9 |
| 20260904035433 | 83 | 180 | 0.0 | 3.0 | 0.00 | 0.00 | 0.00 | 69 | 1013.8 |
| 20260904034932 | 83 | 191 | 0.0 | 4.0 | 0.00 | 0.00 | 0.00 | 70 | 1013.8 |
| 20260904034427 | 83 | 203 | 1.0 | 2.0 | 0.00 | 0.00 | 0.00 | 70 | 1013.8 |
| 20260904033923 | 83 | 206 | 0.0 | 3.0 | 0.00 | 0.00 | 0.00 | 70 | 1013.9 |
| 20260904033419 | 83 | 90 | 0.0 | 2.0 | 0.00 | 0.00 | 0.00 | 70 | 1013.8 |
| 20260904032915 | 83 | 184 | 0.0 | 2.0 | 0.00 | 0.00 | 0.00 | 71 | 1013.7 |
| 20260904032410 | 83 | 192 | 3.0 | 3.0 | 0.00 | 0.00 | 0.00 | 70 | 1013.9 |
| 20260904031904 | 83 | 165 | 0.0 | 2.0 | 0.00 | 0.00 | 0.00 | 70 | 1013.8 |
| 20260904031359 | 83 | 345 | 1.0 | 4.0 | 0.00 | 0.00 | 0.00 | 70 | 1013.9 |
| 20260904030856 | 83 | 168 | 0.0 | 3.0 | 0.00 | 0.00 | 0.00 | 70 | 1013.8 |
| 20260904030351 | 83 | 180 | 2.0 | 3.0 | 0.00 | 0.00 | 0.00 | 70 | 1013.7 |
| 20260904025846 | 83 | 180 | 2.0 | 3.0 | 0.00 | 0.00 | 0.00 | 69 | 1013.9 |
| 20260904025342 | 84 | 234 | 0.0 | 4.0 | 0.00 | 0.00 | 0.00 | 68 | 1013.6 |
| 20260904024842 | 84 | 195 | 2.0 | 4.0 | 0.00 | 0.00 | 0.00 | 68 | 1013.5 |
| 20260904024337 | 84 | 109 | 2.0 | 2.0 | 0.00 | 0.00 | 0.00 | 68 | 1013.4 |
| 20260904023833 | 84 | 263 | 0.0 | 2.0 | 0.00 | 0.00 | 0.00 | 67 | 1013.5 |
| 20260904023329 | 84 | 259 | 0.0 | 3.0 | 0.00 | 0.00 | 0.00 | 68 | 1013.5 |
| 20260904022828 | 84 | 180 | 0.0 | 2.0 | 0.00 | 0.00 | 0.00 | 68 | 1013.5 |
| 20260904022325 | 84 | 175 | 0.0 | 3.0 | 0.00 | 0.00 | 0.00 | 69 | 1013.3 |
| 20260904021822 | 84 | 166 | 0.0 | 2.0 | 0.00 | 0.00 | 0.00 | 70 | 1013.0 |
| 20260904021321 | 84 | 180 | 0.0 | 1.0 | 0.00 | 0.00 | 0.00 | 70 | 1013.1 |
| 20260904020817 | 84 | 165 | 0.0 | 4.0 | 0.00 | 0.00 | 0.00 | 70 | 1012.9 |
| 20260904020312 | 84 | 166 | 0.0 | 2.0 | 0.00 | 0.00 | 0.00 | 70 | 1012.9 |
| 20260904015810 | 85 | 166 | 1.0 | 3.0 | 0.00 | 0.00 | 0.00 | 70 | 1012.6 |
| 20260904015307 | 85 | 194 | 2.0 | 3.0 | 0.00 | 0.00 | 0.00 | 70 | 1012.4 |
| 20260904014804 | 85 | 174 | 0.0 | 4.0 | 0.00 | 0.00 | 0.00 | 70 | 1012.4 |
| 20260904014259 | 85 | 286 | 1.0 | 3.0 | 0.00 | 0.00 | 0.00 | 70 | 1012.3 |
| 20260904013755 | 85 | 209 | 0.0 | 2.0 | 0.00 | 0.00 | 0.00 | 70 | 1012.6 |
| 20260904013251 | 85 | 188 | 0.0 | 3.0 | 0.00 | 0.00 | 0.00 | 69 | 1012.4 |
| 20260904012747 | 86 | 42 | 3.0 | 4.0 | 0.00 | 0.00 | 0.00 | 69 | 1012.2 |
| 20260904012247 | 86 | 90 | 1.0 | 4.0 | 0.00 | 0.00 | 0.00 | 67 | 1012.2 |
| 20260904011746 | 87 | 337 | 1.0 | 4.0 | 0.00 | 0.00 | 0.00 | 65 | 1012.2 |
| 20260904011242 | 87 | 180 | 0.0 | 3.0 | 0.00 | 0.00 | 0.00 | 64 | 1012.0 |
| 20260904010742 | 87 | 193 | 0.0 | 3.0 | 0.00 | 0.00 | 0.00 | 64 | 1012.1 |
| 20260904010239 | 87 | 183 | 2.0 | 3.0 | 0.00 | 0.00 | 0.00 | 64 | 1011.7 |
| 20260904005733 | 87 | 184 | 2.0 | 8.0 | 0.00 | 0.00 | 0.00 | 64 | 1011.8 |
| 20260904005230 | 87 | 90 | 1.0 | 4.0 | 0.00 | 0.00 | 0.00 | 64 | 1012.0 |
| 20260904004729 | 88 | 96 | 2.0 | 3.0 | 0.00 | 0.00 | 0.00 | 63 | 1011.9 |
| 20260904004225 | 88 | 0 | 1.0 | 2.0 | 0.00 | 0.00 | 0.00 | 64 | 1011.7 |
| 20260904003720 | 88 | 170 | 0.0 | 3.0 | 0.00 | 0.00 | 0.00 | 63 | 1011.7 |
| 20260904003216 | 88 | 187 | 3.0 | 4.0 | 0.00 | 0.00 | 0.00 | 63 | 1011.7 |
| 20260904002712 | 88 | 172 | 0.0 | 3.0 | 0.00 | 0.00 | 0.00 | 63 | 1011.7 |
| 20260904002208 | 89 | 188 | 0.0 | 3.0 | 0.00 | 0.00 | 0.00 | 63 | 1011.7 |
| 20260904001702 | 89 | 14 | 0.0 | 4.0 | 0.00 | 0.00 | 0.00 | 63 | 1011.7 |
| 20260904001201 | 89 | 180 | 0.0 | 5.0 | 0.00 | 0.00 | 0.00 | 63 | 1011.5 |
| 20260904000657 | 89 | 185 | 2.0 | 4.0 | 0.00 | 0.00 | 0.00 | 63 | 1011.7 |
| 20260904000152 | 89 | 203 | 2.0 | 4.0 | 0.00 | 0.00 | 0.00 | 63 | 1011.7 |
| 20260903235651 | 89 | 198 | 0.0 | 2.0 | 0.00 | 0.00 | 0.00 | 62 | 1011.6 |
| 20260903235148 | 90 | 12 | 2.0 | 5.0 | 0.00 | 0.00 | 0.00 | 61 | 1011.6 |
| 20260903234642 | 91 | 0 | 1.0 | 2.0 | 0.00 | 0.00 | 0.00 | 61 | 1011.5 |
| 20260903234139 | 91 | 261 | 0.0 | 2.0 | 0.00 | 0.00 | 0.00 | 61 | 1011.3 |
| 20260903233635 | 91 | 281 | 2.0 | 4.0 | 0.00 | 0.00 | 0.00 | 60 | 1011.6 |
| 20260903233130 | 92 | 187 | 0.0 | 2.0 | 0.00 | 0.00 | 0.00 | 60 | 1011.4 |
| 20260903232624 | 92 | 168 | 0.0 | 4.0 | 0.00 | 0.00 | 0.00 | 59 | 1011.3 |
| 20260903232120 | 93 | 331 | 0.0 | 5.0 | 0.00 | 0.00 | 0.00 | 59 | 1011.0 |
| 20260903231614 | 93 | 180 | 0.0 | 5.0 | 0.00 | 0.00 | 0.00 | 59 | 1011.4 |
| 20260903231114 | 93 | 71 | 0.0 | 4.0 | 0.00 | 0.00 | 0.00 | 59 | 1011.4 |
| 20260903230610 | 93 | 180 | 1.0 | 3.0 | 0.00 | 0.00 | 0.00 | 59 | 1011.3 |
| 20260903230109 | 93 | 145 | 0.0 | 3.0 | 0.00 | 0.00 | 0.00 | 60 | 1011.3 |
| 20260903225607 | 93 | 191 | 3.0 | 3.0 | 0.00 | 0.00 | 0.00 | 59 | 1011.3 |
| 20260903225103 | 93 | 184 | 0.0 | 3.0 | 0.00 | 0.00 | 0.00 | 60 | 1011.4 |
| 20260903224559 | 93 | 210 | 2.0 | 6.0 | 0.00 | 0.00 | 0.00 | 60 | 1011.4 |
| 20260903224055 | 93 | 294 | 2.0 | 3.0 | 0.00 | 0.00 | 0.00 | 60 | 1011.2 |
| 20260903223554 | 93 | 255 | 1.0 | 5.0 | 0.00 | 0.00 | 0.00 | 60 | 1011.0 |
| 20260903223053 | 93 | 23 | 0.0 | 3.0 | 0.00 | 0.00 | 0.00 | 59 | 1011.3 |
| 20260903222548 | 93 | 103 | 1.0 | 3.0 | 0.00 | 0.00 | 0.00 | 60 | 1011.2 |
| 20260903222047 | 93 | 328 | 2.0 | 2.0 | 0.00 | 0.00 | 0.00 | 60 | 1011.2 |
| 20260903221543 | 93 | 183 | 3.0 | 3.0 | 0.00 | 0.00 | 0.00 | 60 | 1011.3 |
| 20260903221040 | 94 | 191 | 0.0 | 3.0 | 0.00 | 0.00 | 0.00 | 59 | 1011.1 |
| 20260903220534 | 94 | 324 | 3.0 | 3.0 | 0.00 | 0.00 | 0.00 | 59 | 1011.0 |
| 20260903220034 | 95 | 185 | 0.0 | 2.0 | 0.00 | 0.00 | 0.00 | 58 | 1011.2 |
| 20260903215533 | 94 | 261 | 0.0 | 3.0 | 0.00 | 0.00 | 0.00 | 59 | 1011.1 |
| 20260903215033 | 93 | 180 | 2.0 | 5.0 | 0.00 | 0.00 | 0.00 | 60 | 1011.2 |
| 20260903214532 | 93 | 203 | 1.0 | 3.0 | 0.00 | 0.00 | 0.00 | 61 | 1011.3 |
| 20260903214027 | 93 | 270 | 0.0 | 2.0 | 0.00 | 0.00 | 0.00 | 62 | 1011.3 |
| 20260903213523 | 93 | 213 | 2.0 | 3.0 | 0.00 | 0.00 | 0.00 | 60 | 1011.3 |
| 20260903213018 | 93 | 250 | 2.0 | 4.0 | 0.00 | 0.00 | 0.00 | 60 | 1011.5 |
| 20260903212514 | 93 | 8 | 0.0 | 2.0 | 0.00 | 0.00 | 0.00 | 61 | 1011.3 |
| 20260903212009 | 93 | 276 | 2.0 | 4.0 | 0.00 | 0.00 | 0.00 | 61 | 1011.4 |
| 20260903211504 | 93 | 270 | 3.0 | 7.0 | 0.00 | 0.00 | 0.00 | 60 | 1011.4 |
| 20260903211001 | 93 | 270 | 2.0 | 4.0 | 0.00 | 0.00 | 0.00 | 61 | 1011.6 |
| 20260903210501 | 93 | 270 | 0.0 | 5.0 | 0.00 | 0.00 | 0.00 | 61 | 1011.6 |
| 20260903205956 | 92 | 261 | 0.0 | 5.0 | 0.00 | 0.00 | 0.00 | 61 | 1011.9 |
| 20260903205455 | 92 | 258 | 3.0 | 8.0 | 0.00 | 0.00 | 0.00 | 62 | 1011.8 |
| 20260903204950 | 92 | 233 | 3.0 | 3.0 | 0.00 | 0.00 | 0.00 | 63 | 1011.9 |
| 20260903204447 | 93 | 183 | 2.0 | 2.0 | 0.00 | 0.00 | 0.00 | 62 | 1012.0 |
| 20260903203942 | 92 | 190 | 0.0 | 2.0 | 0.00 | 0.00 | 0.00 | 63 | 1012.0 |
| 20260903203437 | 93 | 180 | 3.0 | 4.0 | 0.00 | 0.00 | 0.00 | 62 | 1012.0 |
| 20260903202937 | 92 | 353 | 4.0 | 6.0 | 0.00 | 0.00 | 0.00 | 64 | 1012.2 |
| 20260903202433 | 93 | 0 | 2.0 | 4.0 | 0.00 | 0.00 | 0.00 | 64 | 1012.3 |
| 20260903201933 | 92 | 71 | 0.0 | 3.0 | 0.00 | 0.00 | 0.00 | 63 | 1012.3 |
| 20260903201429 | 91 | 251 | 2.0 | 4.0 | 0.00 | 0.00 | 0.00 | 65 | 1012.4 |
| 20260903200927 | 91 | 201 | 0.0 | 2.0 | 0.00 | 0.00 | 0.00 | 66 | 1012.5 |
| 20260903200422 | 91 | 186 | 3.0 | 5.0 | 0.00 | 0.00 | 0.00 | 65 | 1012.5 |
| 20260903195917 | 90 | 240 | 0.0 | 3.0 | 0.00 | 0.00 | 0.00 | 66 | 1012.3 |
| 20260903195414 | 91 | 196 | 0.0 | 3.0 | 0.00 | 0.00 | 0.00 | 65 | 1012.4 |
| 20260903194914 | 90 | 278 | 0.0 | 3.0 | 0.00 | 0.00 | 0.00 | 67 | 1012.5 |
| 20260903194409 | 90 | 98 | 3.0 | 3.0 | 0.00 | 0.00 | 0.00 | 67 | 1012.5 |
| 20260903193904 | 90 | 186 | 3.0 | 4.0 | 0.00 | 0.00 | 0.00 | 67 | 1012.4 |
| 20260903193401 | 91 | 90 | 0.0 | 5.0 | 0.00 | 0.00 | 0.00 | 67 | 1012.7 |
| 20260903192855 | 90 | 264 | 2.0 | 5.0 | 0.00 | 0.00 | 0.00 | 68 | 1012.8 |
| 20260903192352 | 90 | 288 | 0.0 | 9.0 | 0.00 | 0.00 | 0.00 | 68 | 1012.9 |
| 20260903191848 | 90 | 180 | 0.0 | 3.0 | 0.00 | 0.00 | 0.00 | 68 | 1012.8 |
| 20260903191344 | 91 | 33 | 0.0 | 3.0 | 0.00 | 0.00 | 0.00 | 68 | 1013.0 |
| 20260903190843 | 90 | 345 | 2.0 | 5.0 | 0.00 | 0.00 | 0.00 | 67 | 1013.1 |
| 20260903190338 | 90 | 203 | 0.0 | 4.0 | 0.00 | 0.00 | 0.00 | 68 | 1013.3 |
| 20260903185837 | 89 | 182 | 0.0 | 4.0 | 0.00 | 0.00 | 0.00 | 70 | 1013.3 |
| 20260903185332 | 89 | 95 | 2.0 | 4.0 | 0.00 | 0.00 | 0.00 | 70 | 1013.3 |
| 20260903184828 | 89 | 289 | 2.0 | 4.0 | 0.00 | 0.00 | 0.00 | 70 | 1013.4 |
| 20260903184326 | 88 | 201 | 5.0 | 6.0 | 0.00 | 0.00 | 0.00 | 71 | 1013.6 |
| 20260903183825 | 88 | 40 | 0.0 | 5.0 | 0.00 | 0.00 | 0.00 | 71 | 1013.7 |
| 20260903183320 | 89 | 346 | 0.0 | 4.0 | 0.00 | 0.00 | 0.00 | 70 | 1013.7 |
| 20260903182814 | 87 | 63 | 0.0 | 3.0 | 0.00 | 0.00 | 0.00 | 73 | 1013.6 |
| 20260903182313 | 87 | 198 | 0.0 | 3.0 | 0.00 | 0.00 | 0.00 | 73 | 1013.8 |
| 20260903181813 | 88 | 187 | 4.0 | 4.0 | 0.00 | 0.00 | 0.00 | 73 | 1013.9 |
| 20260903181309 | 88 | 41 | 2.0 | 2.0 | 0.00 | 0.00 | 0.00 | 72 | 1013.7 |
| 20260903180808 | 89 | 270 | 2.0 | 3.0 | 0.00 | 0.00 | 0.00 | 71 | 1013.6 |
| 20260903180308 | 89 | 270 | 0.0 | 3.0 | 0.00 | 0.00 | 0.00 | 72 | 1013.8 |
| 20260903175808 | 89 | 307 | 2.0 | 4.0 | 0.00 | 0.00 | 0.00 | 70 | 1013.7 |
| 20260903175307 | 89 | 185 | 3.0 | 4.0 | 0.00 | 0.00 | 0.00 | 70 | 1013.9 |
| 20260903174801 | 89 | 174 | 1.0 | 3.0 | 0.00 | 0.00 | 0.00 | 70 | 1013.7 |
| 20260903174257 | 89 | 114 | 2.0 | 5.0 | 0.00 | 0.00 | 0.00 | 70 | 1013.9 |
| 20260903173756 | 89 | 97 | 0.0 | 3.0 | 0.00 | 0.00 | 0.00 | 70 | 1014.1 |
| 20260903173253 | 89 | 71 | 0.0 | 3.0 | 0.00 | 0.00 | 0.00 | 71 | 1014.2 |
| 20260903172748 | 89 | 219 | 3.0 | 5.0 | 0.00 | 0.00 | 0.00 | 71 | 1014.1 |
| 20260903172242 | 89 | 253 | 0.0 | 5.0 | 0.00 | 0.00 | 0.00 | 71 | 1014.4 |
| 20260903171738 | 88 | 209 | 0.0 | 3.0 | 0.00 | 0.00 | 0.00 | 71 | 1014.3 |
| 20260903171233 | 89 | 201 | 2.0 | 5.0 | 0.00 | 0.00 | 0.00 | 71 | 1014.2 |